Jaffrey, NH

11:10 AM EDT on April 23, 2017 (GMT -0400)
Jaffrey Airport-Silver Ranch

Weather History for KAFN - October, 2012

Change the Weather History Date:

Friday, October 5, 2012

  Actual Average Record
Temperature  
Mean Temperature 65 °F -  
Max Temperature 75 °F 60 °F 82 °F (2007)
Min Temperature 55 °F 38 °F 24 °F (1996)
Growing Degree Days 15 (Base 50)    
Moisture  
Dew Point 54 °F    
Average Humidity 82    
Maximum Humidity 94    
Minimum Humidity 43    
Precipitation  
Precipitation 0.01 in - - ()
Sea Level Pressure  
Sea Level Pressure 30.02 in    
Wind  
Wind Speed 3 mph (SSW)    
Max Wind Speed 7 mph    
Max Gust Speed -    
Visibility 5 miles    
Events Fog    
Averages and records for this station are not official NWS values.
T = Trace of Precipitation, MM = Missing Value Source: NWS Daily Summary

Daily Weather History Graph

Daily Weather History Graph

Search for Another Location

Airport or City:

Trip Planner

Search our weather history database for the weather conditions in past years. The results will help you decide how hot, cold, wet, or windy it might be!

Date:

Astronomy

Oct. 05, 2012 Rise Set
Actual Time 6:50 AM EDT 6:21 PM EDT
Civil Twilight 6:21 AM EDT 6:49 PM EDT
Nautical Twilight 5:49 AM EDT 7:22 PM EDT
Astronomical Twilight 5:16 AM EDT 7:55 PM EDT
Moon 9:36 PM EDT (10/5) 12:02 PM EDT (10/5)
Length of Visible Light 12h 27m
Length of Day
11h 31m
Waning Gibbous, 74% of the Moon is Illuminated
Oct 5
Waning Gibbous
Oct 8
Last Quarter
Oct 15
New
Oct 21
First Quarter
Oct 29
Full

Hourly Weather History & Observations

Time (EDT) Temp. Dew Point Humidity Pressure Visibility Wind Dir Wind Speed Gust Speed Precip Events Conditions
12:10 AM 62.6 °F 57.2 °F 82% 30.05 in 10.0 mi SW 4.6 mph - N/A   Mostly Cloudy
12:23 AM 62.6 °F 57.2 °F 82% 30.05 in 10.0 mi Variable 4.6 mph - N/A   Scattered Clouds
12:52 AM 62.1 °F 57.0 °F 84% 30.06 in 9.0 mi SSE 4.6 mph - N/A   Partly Cloudy
1:39 AM 57.2 °F 55.4 °F 94% 30.05 in 1.8 mi Calm Calm - N/A   Partly Cloudy
1:52 AM 57.0 °F 54.0 °F 89% 30.06 in 1.0 mi South 3.5 mph - N/A   Mist
1:55 AM 57.2 °F 53.6 °F 88% 30.04 in 0.8 mi SSE 3.5 mph - N/A   Mist
2:01 AM 57.2 °F 55.4 °F 94% 30.04 in 1.2 mi Calm Calm - N/A   Partly Cloudy
2:03 AM 57.2 °F 53.6 °F 88% 30.04 in 2.0 mi Calm Calm - N/A   Partly Cloudy
2:13 AM 57.2 °F 53.6 °F 88% 30.04 in 1.2 mi Calm Calm - N/A   Partly Cloudy
2:15 AM 57.2 °F 53.6 °F 88% 30.04 in 0.8 mi Calm Calm - N/A   Mist
2:37 AM 57.2 °F 53.6 °F 88% 30.04 in 1.2 mi South 4.6 mph - N/A   Mostly Cloudy
2:50 AM 59.0 °F 55.4 °F 88% 30.04 in 0.8 mi SSW 3.5 mph - N/A   Overcast
2:52 AM 59.0 °F 55.9 °F 90% 30.05 in 0.8 mi SSW 3.5 mph - N/A   Overcast
4:52 AM 57.0 °F 55.0 °F 93% 30.05 in 0.2 mi Calm Calm - N/A Fog Fog
5:52 AM 55.9 °F 53.1 °F 90% 30.05 in 0.5 mi South 3.5 mph - 0.01 in Fog Fog
6:30 AM 55.4 °F 53.6 °F 94% 30.04 in 1.0 mi Calm Calm - N/A   Mist
6:38 AM 55.4 °F 53.6 °F 94% 30.04 in 0.8 mi Calm Calm - N/A   Mist
6:52 AM 55.9 °F 53.1 °F 90% 30.05 in 0.5 mi Calm Calm - N/A Fog Fog
7:12 AM 55.4 °F 51.8 °F 88% 30.04 in 1.2 mi Calm Calm - N/A   Mostly Cloudy
7:15 AM 55.4 °F 51.8 °F 88% 30.04 in 2.5 mi Calm Calm - N/A   Mostly Cloudy
7:23 AM 55.4 °F 51.8 °F 88% 30.04 in 4.0 mi South 3.5 mph - N/A   Mostly Cloudy
7:33 AM 55.4 °F 51.8 °F 88% 30.04 in 2.0 mi South 3.5 mph - N/A   Mostly Cloudy
7:39 AM 55.4 °F 51.8 °F 88% 30.04 in 3.0 mi Calm Calm - N/A   Scattered Clouds
7:52 AM 55.9 °F 53.1 °F 90% 30.05 in 10.0 mi WSW 3.5 mph - N/A   Partly Cloudy
8:52 AM 57.9 °F 54.0 °F 87% 30.05 in 9.0 mi SSE 6.9 mph - N/A   Partly Cloudy
9:52 AM 62.1 °F 55.0 °F 78% 30.05 in 10.0 mi SW 4.6 mph - N/A   Clear
11:52 AM 70.0 °F 53.1 °F 55% 30.04 in 10.0 mi West 5.8 mph - N/A   Clear
1:52 PM 73.9 °F 50.0 °F 43% 29.99 in 10.0 mi West 5.8 mph - N/A   Clear
3:52 PM 75.0 °F 52.0 °F 44% 29.96 in 10.0 mi WSW 5.8 mph - N/A   Clear
4:52 PM 73.9 °F 53.1 °F 48% 29.96 in 10.0 mi SSW 3.5 mph - N/A   Clear
5:52 PM 71.1 °F 55.9 °F 59% 29.96 in 10.0 mi Calm Calm - N/A   Clear
6:52 PM 64.0 °F 57.0 °F 78% 29.97 in 10.0 mi Calm Calm - N/A   Clear
7:52 PM 61.0 °F 55.9 °F 83% 29.98 in 8.0 mi Calm Calm - N/A   Clear
8:52 PM 60.1 °F 55.0 °F 83% 29.98 in 7.0 mi Calm Calm - N/A   Clear
9:52 PM 57.9 °F 54.0 °F 87% 29.97 in 6.0 mi Calm Calm - N/A   Clear
10:52 PM 59.0 °F 54.0 °F 83% 29.96 in 7.0 mi Calm Calm - N/A   Overcast
11:52 PM 59.0 °F 55.0 °F 87% 29.94 in 8.0 mi South 3.5 mph - N/A   Overcast